Tracking 30505 objects as of 23-May-2025
HD Live streaming from Space Station
objects crossing your sky now

TITAN 34B AGENA D DEB

Track TITAN 34B AGENA D DEB now!


NORAD ID: 25588
Int'l Code: 1983-078E
Perigee: 860.3 km
Apogee: 36,319.9 km
Inclination: 63.3 °
Period: 654.1 minutes
Semi major axis: 24961 km
RCS: Unknown
Launch date: July 31, 1983
Source: United States (US)
Launch site: AIR FORCE WESTERN TEST RANGE (AFWTR)

Note: This is SATELLITE DEBRIS
Your satellite tracking list
Your tracking list is empty




NASA's NSSDC Master Catalog

Two Line Element Set (TLE):
1 25588U 83078E   25143.19546360  .00000204  00000-0  10566-2 0  9999
2 25588  63.3292 109.4576 7102961 272.7727  15.2003  2.20143700 48357
Source of the keplerian elements: AFSPC